Weather History for Mineral Wells, TX

Change the Weather History Date:

Wednesday, February 20, 2013

  Actual Average Record
Temperature  
Mean Temperature 44 °F -  
Max Temperature 45 °F 59 °F 82 °F (2005)
Min Temperature 42 °F 38 °F 30 °F (2006)
Degree Days  
Heating Degree Days 22    
Moisture  
Dew Point 36 °F    
Average Humidity 74    
Maximum Humidity 79    
Minimum Humidity 71    
Precipitation  
Precipitation 0.00 in - - ()
Sea Level Pressure  
Sea Level Pressure 29.97 in    
Wind  
Wind Speed 18 mph (ESE)    
Max Wind Speed 23 mph    
Max Gust Speed 32 mph    
Visibility 10 miles    
Events Thunderstorm    
Averages and records for this station are not official NWS values.
T = Trace of Precipitation, MM = Missing Value Source: NWS Daily Summary

Daily Weather History Graph

Daily Weather History Graph

Search for Another Location

Airport:

Trip Planner

Search our weather history database for the weather conditions in past years. The results will help you decide how hot, cold, wet, or windy it might be!

Date:

Astronomy

Feb. 20, 2013 Rise Set
Actual Time 7:09 AM CST 6:22 PM CST
Civil Twilight 6:44 AM CST 6:47 PM CST
Nautical Twilight 6:16 AM CST 7:16 PM CST
Astronomical Twilight 5:47 AM CST 7:44 PM CST
Moon 1:54 PM CST (2/20) 3:21 AM CST (2/20)
Length of Visible Light 12h 02m
Length of Day
11h 12m
Waxing Gibbous, 76% of the Moon is Illuminated
Feb 20
Waxing Gibbous
Feb 25
Full
Mar 4
Last Quarter
Mar 11
New
Mar 19
First Quarter

Hourly Weather History & Observations

Time (CST) Temp. Windchill Dew Point Humidity Pressure Visibility Wind Dir Wind Speed Gust Speed Precip Events Conditions
12:53 AM - - - N/A% 30.11 in - North - - N/A   Unknown
1:53 AM - - - N/A% 30.12 in - North - - N/A   Unknown
2:53 AM - - - N/A% 30.17 in - North - - N/A   Unknown
3:53 AM - - - N/A% 30.06 in - North - - N/A   Unknown
4:53 AM - - - N/A% 30.03 in - North - - N/A   Unknown
5:53 AM - - - N/A% 30.02 in - North - - N/A   Unknown
6:53 AM - - - N/A% 30.09 in - North - - N/A   Unknown
7:20 AM - - - N/A% 30.09 in - North - - N/A Thunderstorm Unknown
7:42 AM - - - N/A% 30.08 in - North - - N/A   Unknown
7:53 AM - - - N/A% 30.08 in - North - - N/A   Unknown
8:53 AM - - - N/A% 30.07 in - North - - N/A   Unknown
9:53 AM - - - N/A% 30.04 in - North - - N/A   Unknown
10:53 AM 45.0 °F 37.9 °F 37.0 °F 74% 30.04 in 10.0 mi ESE 16.1 mph 23.0 mph N/A   Unknown
11:53 AM 45.0 °F 37.4 °F 36.0 °F 71% 30.02 in 10.0 mi ESE 18.4 mph 31.1 mph N/A   Overcast
12:53 PM 45.0 °F 37.1 °F 36.0 °F 71% 29.98 in 10.0 mi ESE 19.6 mph 29.9 mph N/A   Overcast
1:53 PM 45.0 °F 38.2 °F 37.0 °F 74% 29.94 in 10.0 mi ESE 15.0 mph 23.0 mph N/A   Overcast
2:53 PM 45.0 °F 37.4 °F 37.0 °F 74% 29.91 in 10.0 mi ESE 18.4 mph 24.2 mph N/A   Overcast
3:53 PM 45.0 °F 37.6 °F 37.0 °F 74% 29.88 in 10.0 mi ESE 17.3 mph 25.3 mph N/A   Overcast
4:53 PM 44.1 °F 36.2 °F 36.0 °F 73% 29.85 in 10.0 mi East 18.4 mph 26.5 mph N/A   Overcast
5:53 PM 44.1 °F 37.1 °F 35.1 °F 71% 29.85 in 10.0 mi East 15.0 mph 23.0 mph N/A   Overcast
6:53 PM 43.0 °F 34.2 °F 35.1 °F 74% 29.84 in 10.0 mi ESE 20.7 mph 27.6 mph N/A   Overcast
7:53 PM 43.0 °F 33.8 °F 36.0 °F 76% 29.83 in 10.0 mi ESE 23.0 mph 28.8 mph N/A   Overcast
8:53 PM 43.0 °F 33.8 °F 35.1 °F 74% 29.80 in 10.0 mi ESE 23.0 mph 32.2 mph N/A   Overcast
9:53 PM 44.1 °F 35.4 °F 35.1 °F 71% 29.79 in 10.0 mi ESE 21.9 mph - N/A   Overcast
10:53 PM 42.1 °F 33.1 °F 36.0 °F 79% 29.75 in 10.0 mi East 20.7 mph 28.8 mph N/A   Overcast
11:53 PM 42.1 °F 33.9 °F 36.0 °F 79% 29.73 in 10.0 mi ESE 17.3 mph 25.3 mph N/A   Overcast